Theta_e
305 306 307 304 304 303 303 304 303 302 302 304 306 307 308 307 311 319 321 324 325 326 327 331 332 331 331 330 330 329 330 329 328 327 326 325 326 325 325 326 326 327 323 326
305 306 304 304 304 303 303 303 304 303 302 303 303 304 305 309 310 313 320 322 324 324 327 328 332 331 331 330 330 329 329 329 329 328 327 326 325 325 324 323 323 322 324 325
304 303 303 304 304 305 305 305 303 303 303 303 304 305 305 305 308 312 313 318 322 325 324 326 330 332 330 330 329 328 328 328 328 328 326 324 323 321 319 318 317 321 324 325
303 304 305 305 306 306 309 305 303 305 305 306 304 309 305 305 307 310 315 316 320 323 325 325 327 332 330 330 330 328 327 327 327 328 324 323 319 317 317 320 318 323 323 322
304 304 306 307 306 304 309 306 305 304 307 307 304 308 308 307 307 309 313 317 318 322 324 325 328 330 329 330 329 328 327 328 328 327 324 323 321 320 319 318 315 319 318 319
306 304 304 305 304 305 305 307 307 307 308 309 306 306 305 307 310 310 312 315 320 322 323 323 326 330 330 328 330 329 328 329 329 327 324 321 322 323 318 314 312 314 315 316
302 302 302 305 308 307 307 308 310 310 310 308 304 307 307 306 307 312 312 316 318 321 324 324 326 330 331 327 328 328 328 327 326 326 324 323 324 321 317 317 314 313 315 311
302 302 302 306 304 308 309 308 306 303 304 305 306 309 308 306 307 311 314 316 319 322 323 327 329 329 330 327 328 328 327 326 325 326 324 324 325 318 317 318 317 316 313 310
301 301 301 302 304 305 309 310 305 310 311 310 311 308 307 309 310 309 312 317 321 323 324 326 331 330 331 328 327 328 327 326 324 325 324 325 325 319 317 315 314 313 311 306
300 303 300 303 305 305 310 308 307 309 314 315 318 317 313 314 316 317 314 319 319 320 323 325 331 331 330 328 327 328 327 326 325 324 324 323 320 317 316 314 312 310 307 304
299 303 301 304 309 309 309 309 306 305 308 317 324 323 319 321 321 320 318 320 322 322 322 326 329 329 329 327 327 327 327 327 324 324 323 319 316 313 314 311 308 307 305 300
300 300 302 304 306 308 311 312 307 312 309 311 314 325 314 316 316 319 322 322 322 324 325 328 324 321 320 322 325 326 326 324 324 321 316 313 313 309 308 306 303 301 299 294
300 299 303 308 310 306 306 307 312 309 312 316 325 324 311 311 313 317 321 318 316 314 312 311 309 306 305 305 305 307 309 311 312 311 308 306 304 303 301 301 300 298 295 293
297 299 302 304 305 304 307 306 307 314 314 316 318 314 308 308 311 311 311 310 308 307 306 305 303 302 301 300 300 299 299 299 300 300 299 297 297 297 297 296 296 296 298 302
297 299 300 301 301 305 305 303 307 305 306 314 311 307 306 305 310 309 308 307 306 305 304 303 302 301 300 300 299 299 299 299 300 298 298 296 297 297 296 297 298 300 303 303
297 299 300 302 308 308 306 301 302 302 301 304 308 307 304 303 306 307 306 305 304 303 302 301 300 300 299 299 298 297 297 297 297 297 297 298 299 299 300 299 301 301 302 301
297 300 300 303 305 307 308 300 301 303 299 300 304 306 302 299 302 302 303 303 303 302 301 301 300 299 299 298 298 298 298 298 298 297 299 299 300 300 299 299 298 296 294 291
297 299 301 303 306 311 305 299 299 299 298 297 299 302 302 300 297 296 298 299 299 300 300 300 299 299 298 298 297 297 297 297 298 297 297 297 297 296 295 294 292 291 290 290
296 299 301 306 309 311 304 299 297 299 300 296 296 298 301 301 299 295 293 294 294 294 294 294 295 295 293 293 294 294 293 292 292 292 293 293 293 292 291 290 290 290 290 290
298 299 301 306 311 306 301 296 295 299 301 295 294 294 294 300 297 292 290 289 289 288 287 287 287 287 287 287 288 288 286 287 286 288 289 291 291 292 291 291 292 292 292 291
301 302 304 305 310 304 296 293 296 298 295 294 292 291 290 289 289 287 286 285 284 283 283 281 280 279 280 283 284 283 283 282 284 285 286 286 287 287 287 287 288 287 287 287
301 302 302 302 301 300 294 293 294 293 292 292 291 290 288 287 285 284 283 282 281 280 280 279 277 276 276 277 279 278 278 280 281 282 282 282 282 282 283 283 283 283 283 283
302 297 299 299 299 295 292 292 290 290 289 289 289 288 287 285 284 283 282 281 280 279 278 277 277 276 274 274 275 275 276 279 280 280 280 280 281 281 281 281 281 281 281 281
298 295 299 300 298 294 291 290 289 288 287 286 286 285 285 284 282 281 281 279 278 277 276 275 275 274 273 273 275 275 277 278 279 279 278 278 278 278 278 277 278 279 277 278
297 294 296 299 298 297 292 288 286 286 286 284 283 283 283 282 281 280 279 278 276 275 274 273 273 272 271 272 273 274 276 276 276 275 275 275 275 274 275 275 276 275 275 276
293 294 299 300 293 294 289 285 284 283 283 283 283 281 280 280 279 278 276 275 274 273 272 271 270 270 269 270 271 272 273 274 274 273 273 272 272 273 272 273 273 274 274 274
Wind_Speed
12 10 15 19 19 22 20 24 25 21 19 19 20 21 19 23 25 19 15 21 23 19 20 23 28 30 31 30 30 32 32 31 27 25 25 23 20 18 17 18 18 16 16 20
14 18 23 22 21 22 25 25 25 25 23 20 23 24 21 23 21 26 22 22 18 21 23 21 27 28 29 31 30 30 31 31 32 27 25 23 21 18 19 14 18 17 21 22
19 23 21 22 19 22 26 26 24 24 20 20 20 23 23 25 25 25 23 25 21 20 20 24 22 28 31 33 33 34 32 31 34 28 26 23 21 17 15 16 16 20 21 22
17 17 17 22 25 23 26 25 24 22 18 15 16 17 23 23 26 27 27 25 24 21 20 20 21 24 30 33 33 33 30 31 32 32 29 30 28 22 16 23 19 22 23 22
21 25 23 22 28 24 27 18 22 22 18 18 22 13 17 20 25 29 28 24 26 23 20 22 20 25 32 35 33 35 34 34 34 34 31 29 27 24 21 22 22 24 24 22
21 21 21 27 26 22 17 17 11 19 14 14 23 18 16 19 20 25 28 27 24 23 22 20 21 27 29 32 32 32 34 33 34 35 32 32 29 26 24 24 26 25 25 24
27 16 16 4 8 4 9 12 6 7 8 12 18 16 19 15 26 23 27 27 25 23 20 21 20 18 24 29 32 32 33 34 34 35 33 32 29 29 30 33 32 30 29 26
12 24 9 2 7 9 10 11 5 7 10 13 17 10 14 28 27 18 16 25 25 23 22 21 20 18 25 31 34 32 34 34 35 35 34 32 29 28 27 35 36 35 32 28
12 12 18 18 19 8 9 10 16 5 9 9 7 13 19 21 22 24 19 17 22 21 23 22 21 19 26 30 33 34 33 33 36 36 32 30 28 25 24 29 30 32 29 28
6 17 11 19 2 4 5 6 8 4 4 6 8 11 5 20 16 16 21 18 18 18 20 20 18 17 24 28 30 32 32 32 33 33 32 30 29 28 29 32 34 32 29 26
15 5 15 16 5 2 3 4 7 8 8 4 1 4 9 11 2 7 12 13 14 15 14 16 15 17 21 23 24 26 27 28 30 30 27 28 28 31 33 32 30 30 29 25
9 6 8 19 11 3 3 4 16 6 5 7 7 2 11 11 10 7 7 6 10 12 7 7 9 10 11 12 16 18 22 25 26 27 27 29 33 30 31 29 27 25 26 28
12 5 9 5 1 7 3 10 9 16 8 7 7 3 15 14 11 9 4 4 9 10 13 13 11 9 10 14 15 17 18 23 26 28 27 25 26 28 27 27 25 27 30 24
15 5 7 8 14 13 10 18 21 5 5 7 2 8 17 16 12 10 9 8 11 12 12 12 11 12 14 17 16 21 21 18 20 21 22 20 20 21 21 20 27 29 29 22
5 5 10 18 17 12 13 24 21 18 14 8 10 9 13 14 8 10 10 11 16 16 15 12 13 12 14 19 20 22 22 23 21 25 25 24 20 25 27 29 24 24 22 15
9 5 14 5 5 10 7 26 19 22 20 11 11 10 13 12 11 15 14 15 18 17 17 15 15 15 14 21 22 24 23 24 29 27 29 28 25 25 25 22 19 14 11 11
8 7 9 6 13 13 3 23 15 11 19 12 9 8 11 17 18 16 16 18 19 18 17 17 15 16 18 27 26 23 24 30 34 28 31 27 23 19 15 12 10 8 7 5
10 13 3 6 12 4 4 17 10 13 24 27 17 13 11 13 23 25 20 18 19 20 19 17 16 24 27 27 33 30 33 32 30 26 23 19 15 15 13 9 8 6 4 1
6 5 5 5 6 1 12 21 11 9 16 27 21 18 9 8 29 27 22 20 19 20 18 26 30 31 34 32 32 35 33 31 30 24 20 17 14 14 11 10 8 4 2 3
7 5 3 4 5 9 14 26 27 8 17 27 21 19 18 12 23 9 16 19 22 28 31 28 29 34 35 27 32 38 30 33 29 25 22 20 18 16 14 10 9 8 8 9
7 4 9 10 5 4 20 29 15 11 7 19 18 14 18 18 10 7 16 20 28 30 31 29 35 31 27 26 30 32 29 31 23 24 24 23 21 20 17 15 14 12 12 11
6 8 5 6 7 7 24 12 9 7 10 12 16 15 16 15 16 17 19 20 24 28 31 31 32 31 30 30 30 28 30 24 25 26 27 28 26 25 23 21 19 21 22 21
4 4 4 7 4 5 8 8 10 10 8 12 12 13 14 17 18 18 18 18 24 28 26 27 27 27 30 34 33 31 27 27 27 29 31 28 28 29 28 28 26 25 24 20
3 7 2 2 6 7 11 10 13 12 12 13 14 14 15 16 16 17 15 15 20 24 25 23 24 28 29 34 35 30 26 27 29 29 29 29 30 28 28 26 26 22 24 22
3 7 5 3 4 2 11 13 11 10 9 13 16 17 15 15 17 15 15 19 22 24 24 25 26 27 27 31 33 31 27 26 27 28 27 26 26 27 26 25 23 25 24 23
2 3 3 3 4 3 5 9 9 10 12 13 12 15 20 19 14 18 19 20 20 21 20 23 24 24 24 28 30 29 28 29 26 25 24 26 24 24 25 24 23 19 20 18
Wind_Direction
247 248 253 259 252 250 262 268 274 276 275 276 267 271 261 239 243 253 221 243 225 223 217 194 201 194 193 197 194 195 190 187 185 180 180 184 186 189 194 198 195 183 186 190
275 257 261 270 265 258 259 260 260 266 262 264 268 266 262 269 253 231 232 238 245 225 216 197 197 194 192 194 200 199 197 187 190 192 190 181 177 182 188 182 186 185 193 196
280 273 278 275 260 261 253 247 254 259 270 269 270 264 254 245 251 256 251 233 242 245 224 211 194 188 197 194 196 197 196 195 193 198 187 173 176 173 175 180 185 192 191 196
284 278 275 275 258 243 251 242 245 255 263 263 256 260 253 235 233 235 240 216 228 240 227 220 204 193 200 198 197 194 191 196 195 198 188 179 174 175 189 186 190 191 194 197
268 289 292 277 265 261 265 252 250 249 249 251 255 266 268 245 226 221 226 218 216 227 227 222 200 196 201 202 190 196 193 198 198 197 193 184 188 190 175 178 190 191 194 197
271 286 276 267 276 268 247 228 250 242 234 239 245 240 256 246 246 214 214 217 220 216 220 227 219 198 202 202 195 193 192 194 196 193 189 194 193 178 166 179 186 189 194 197
310 288 310 284 301 273 189 174 214 206 209 233 228 228 237 245 230 230 208 208 219 218 213 215 217 195 195 196 194 195 193 192 192 194 193 199 195 180 180 187 189 191 195 198
338 321 349 102 283 303 203 190 209 217 228 239 223 241 228 223 250 271 217 205 208 211 209 206 205 201 189 197 193 190 192 188 190 194 197 198 194 183 185 192 195 200 200 200
310 291 309 290 281 223 162 205 221 335 264 269 213 228 245 219 224 232 235 228 203 208 205 207 198 198 190 195 195 190 191 191 189 190 194 197 196 190 188 193 198 196 199 198
281 297 327 323 311 185 280 302 220 230 269 220 223 205 208 194 210 223 203 212 214 200 198 202 194 193 190 196 196 192 191 191 190 188 189 190 186 193 197 198 195 196 196 193
302 254 293 320 7 300 200 209 220 247 273 317 7 133 358 13 116 181 195 213 214 225 199 197 185 185 186 190 188 189 189 187 185 186 184 183 184 193 200 199 191 196 190 183
353 291 293 299 298 340 319 268 214 232 228 216 299 63 19 7 339 307 273 223 223 217 192 135 97 104 100 147 172 179 179 176 180 178 178 184 190 190 188 187 184 185 176 168
1 306 302 338 160 56 345 287 249 252 295 257 280 80 13 5 355 350 238 75 78 84 86 87 80 78 79 79 93 112 132 149 160 164 171 173 174 177 173 174 171 165 156 161
326 263 264 289 298 303 325 350 16 192 220 272 39 3 354 354 357 17 44 66 76 72 72 81 77 74 72 72 76 84 88 100 114 125 124 117 129 142 147 141 147 146 145 171
321 281 295 296 283 274 31 7 16 22 351 22 34 42 354 343 4 50 61 70 77 71 68 68 76 76 75 75 75 80 87 99 111 106 105 110 127 132 137 140 152 155 148 170
331 283 315 290 280 337 45 10 5 26 11 1 5 42 4 353 45 60 61 68 73 73 75 72 73 74 73 80 77 79 82 92 96 101 105 112 110 119 117 132 138 136 153 184
310 316 330 295 329 320 34 10 355 27 25 354 10 9 11 34 48 46 60 67 70 73 72 73 72 70 74 75 70 72 86 91 91 94 102 101 106 106 113 121 131 134 138 155
289 316 290 296 315 44 61 17 359 351 26 14 9 7 21 60 62 47 39 58 63 66 66 64 68 67 67 75 74 70 70 72 80 77 77 78 85 92 92 97 102 105 112 136
301 303 313 320 321 344 357 355 343 346 25 10 5 10 24 67 73 39 26 45 56 58 60 57 57 60 57 55 73 76 66 63 59 56 61 64 64 73 78 78 77 73 39 359
337 261 275 312 26 15 350 337 331 303 32 356 6 19 26 30 70 33 21 39 46 47 49 52 53 54 52 48 66 67 53 53 45 51 56 59 61 65 64 60 49 28 9 357
337 358 16 358 31 52 351 336 335 47 334 345 9 27 44 55 57 47 46 45 51 53 51 53 56 53 42 47 64 61 53 46 51 60 64 62 60 58 55 51 44 36 25 16
349 342 3 348 24 10 351 352 42 342 9 2 22 28 51 57 56 51 52 48 46 48 46 48 55 49 42 48 56 56 52 55 63 63 62 59 55 53 51 48 46 39 35 32
39 16 354 26 47 28 335 15 16 17 27 23 46 50 60 65 61 58 60 54 53 53 52 51 58 58 46 47 53 53 48 58 62 62 60 58 57 53 49 45 44 38 33 28
84 18 37 204 19 60 25 12 16 13 34 34 46 52 56 66 60 61 58 53 52 48 47 49 55 51 45 44 53 55 56 58 60 58 54 48 48 46 45 44 41 36 27 21
6 317 356 73 41 191 51 20 13 27 36 59 50 48 57 65 59 62 59 53 52 51 44 45 48 47 43 49 53 53 53 57 54 52 48 43 40 38 38 42 36 35 34 32
21 3 357 74 34 13 38 16 26 45 43 40 54 58 51 63 71 73 69 63 60 55 52 51 52 54 52 56 57 54 54 56 56 52 43 42 38 35 35 31 30 31 32 34